Location: Hartman Creek State Park
(44.3257°N, 89.2134°W)
Time: 00:12:16
(UTC-05:00)

Cosmos 2263 Rocket - Visible Passes

Search period start: 05 May 2015 00:00
Search period end: 15 May 2015 00:00
Orbit: 825 x 847 km, 71.0° (Epoch: 04 May)

Date Brightness Start Highest point End Pass type
(mag) Time Alt. Az. Time Alt. Az. Time Alt. Az.
05 May 2.8 01:28:02 10° NNW 01:33:27 50° ENE 01:34:25 45° E visible
05 May 3.4 03:12:36 10° NW 03:16:04 24° W 03:16:04 24° W visible
06 May 2.9 01:11:25 10° NNW 01:16:46 46° ENE 01:17:41 43° E visible
06 May 3.4 02:55:50 10° NW 02:59:21 25° W 02:59:21 25° W visible
07 May 3.0 00:54:47 10° NNW 01:00:05 43° ENE 01:01:00 40° E visible
07 May 3.3 02:39:04 10° NW 02:42:40 27° W 02:42:40 27° W visible
08 May 3.1 00:38:10 10° NNW 00:43:23 40° NE 00:44:23 37° E visible
08 May 3.3 02:22:20 10° NW 02:26:03 29° W 02:26:03 29° W visible
09 May 3.2 00:21:33 10° NNW 00:26:41 37° NE 00:27:48 34° E visible
09 May 3.2 02:05:36 10° NW 02:09:29 32° W 02:09:29 32° W visible
10 May 3.3 00:04:57 10° N 00:10:00 35° NE 00:11:16 31° E visible
10 May 3.1 01:48:52 10° NW 01:52:57 35° W 01:52:57 35° W visible
10 May 3.4 23:48:20 10° N 23:53:18 32° NE 23:54:46 28° E visible
11 May 3.0 01:32:09 10° NW 01:36:27 38° W 01:36:27 38° W visible
11 May 3.5 23:31:44 10° N 23:36:35 30° NE 23:38:18 26° E visible
12 May 2.8 01:15:26 10° NW 01:19:59 42° W 01:19:59 42° W visible
12 May 3.6 23:15:08 10° N 23:19:53 28° NE 23:21:51 23° E visible
13 May 2.7 00:58:44 10° NW 01:03:33 47° W 01:03:33 47° W visible
13 May 3.7 22:58:32 10° N 23:03:10 27° NE 23:05:27 21° E visible
14 May 2.5 00:42:02 10° NW 00:47:08 52° W 00:47:08 52° W visible
14 May 3.7 22:41:57 10° N 22:46:27 25° NE 22:49:05 18° E visible
